When you browse on this site, cookies collect data to enhance your experience and personalize the content and advertising you see.
Visit our Privacy Policy to learn more. By continuing to use the site, you agree to this use of cookies and data.
  • En España
  • Lista de países
  • Para 7 días
  • Temperatura del agua
  • El tiempo en el mapa
  • Informadores
  • user-avatar
    Iniciar sesión

    Tiempo cada hora Spasskoe-Shlykovo

    Hoy, 8 Abril, Miércoles

    Tiempo Temperatura Precipitaciones Viento Presión Humedad
    00:00 +5°C° 0 mm 5 mps 749 mmHg 75%
    01:00 +4°C° 0 mm 6 mps 748 mmHg 75%
    02:00 +3°C° 0 mm 5 mps 747 mmHg 74%
    03:00 +3°C° 0 mm 5 mps 746 mmHg 73%
    04:00 +3°C° 0 mm 6 mps 745 mmHg 72%
    05:00 +3°C° 0 mm 6 mps 744 mmHg 71%
    06:00 +4°C° 0 mm 6 mps 744 mmHg 68%
    07:00 +5°C° 0 mm 7 mps 743 mmHg 66%
    08:00 +6°C° 0 mm 7 mps 742 mmHg 61%
    09:00 +6°C° 0.3 mm 7 mps 742 mmHg 65%
    10:00 +8°C° 0.3 mm 6 mps 742 mmHg 70%
    11:00 +8°C° 0.3 mm 6 mps 742 mmHg 74%
    12:00 +8°C° 0.1 mm 6 mps 742 mmHg 75%
    13:00 +8°C° 0.1 mm 6 mps 742 mmHg 76%
    14:00 +8°C° 0.1 mm 6 mps 742 mmHg 77%
    15:00 +8°C° 0.1 mm 6 mps 743 mmHg 75%
    16:00 +8°C° 0.1 mm 6 mps 743 mmHg 72%
    17:00 +9°C° 0.1 mm 5 mps 744 mmHg 70%
    18:00 +8°C° 0 mm 5 mps 744 mmHg 75%
    19:00 +7°C° 0 mm 4 mps 744 mmHg 80%
    20:00 +6°C° 0 mm 4 mps 744 mmHg 85%
    21:00 +5°C° 0 mm 3 mps 745 mmHg 88%
    22:00 +4°C° 0 mm 3 mps 745 mmHg 90%
    23:00 +4°C° 0 mm 3 mps 745 mmHg 92%

    Mañana, 9 Abril, Jueves

    Tiempo Temperatura Precipitaciones Viento Presión Humedad
    00:00 +3°C° 0 mm 3 mps 745 mmHg 92%
    01:00 +3°C° 0 mm 2 mps 745 mmHg 93%
    02:00 +3°C° 0 mm 2 mps 745 mmHg 94%
    03:00 +2°C° 0 mm 2 mps 745 mmHg 94%
    04:00 +2°C° 0 mm 2 mps 745 mmHg 94%
    05:00 +2°C° 0 mm 1 mps 745 mmHg 94%
    06:00 +4°C° 0 mm 1 mps 745 mmHg 88%
    07:00 +4°C° 0 mm 2 mps 745 mmHg 82%
    08:00 +5°C° 0 mm 2 mps 745 mmHg 76%
    09:00 +7°C° 0 mm 2 mps 744 mmHg 68%
    10:00 +8°C° 0 mm 3 mps 744 mmHg 60%
    11:00 +10°C° 0 mm 3 mps 744 mmHg 53%
    12:00 +10°C° 0 mm 4 mps 743 mmHg 51%
    13:00 +11°C° 0 mm 4 mps 742 mmHg 49%
    14:00 +12°C° 0 mm 4 mps 742 mmHg 47%
    15:00 +12°C° 0 mm 4 mps 741 mmHg 51%
    16:00 +11°C° 0 mm 4 mps 741 mmHg 55%
    17:00 +11°C° 0 mm 4 mps 740 mmHg 60%
    18:00 +10°C° 0 mm 4 mps 740 mmHg 64%
    19:00 +8°C° 0 mm 4 mps 739 mmHg 67%
    20:00 +7°C° 0 mm 4 mps 739 mmHg 71%
    21:00 +7°C° 0 mm 4 mps 739 mmHg 71%
    22:00 +7°C° 0 mm 5 mps 738 mmHg 71%
    23:00 +7°C° 0 mm 5 mps 738 mmHg 71%

    Pasado mañana, 10 Abril, Viernes

    Tiempo Temperatura Precipitaciones Viento Presión Humedad
    00:00 +7°C° 0.1 mm 5 mps 737 mmHg 72%
    01:00 +7°C° 0.1 mm 5 mps 736 mmHg 72%
    02:00 +7°C° 0.1 mm 6 mps 736 mmHg 73%
    03:00 +6°C° 0.3 mm 5 mps 736 mmHg 78%
    04:00 +6°C° 0.3 mm 5 mps 736 mmHg 83%
    05:00 +6°C° 0.3 mm 4 mps 736 mmHg 88%
    06:00 +6°C° 0 mm 4 mps 736 mmHg 85%
    07:00 +7°C° 0 mm 4 mps 736 mmHg 83%
    08:00 +7°C° 0 mm 4 mps 736 mmHg 80%
    09:00 +7°C° 0 mm 4 mps 736 mmHg 76%
    10:00 +7°C° 0 mm 4 mps 737 mmHg 71%
    11:00 +7°C° 0 mm 4 mps 737 mmHg 66%
    12:00 +7°C° 0 mm 5 mps 737 mmHg 62%
    13:00 +8°C° 0 mm 5 mps 737 mmHg 57%
    14:00 +8°C° 0 mm 5 mps 737 mmHg 53%
    15:00 +8°C° 0 mm 5 mps 737 mmHg 52%
    16:00 +7°C° 0 mm 5 mps 737 mmHg 52%
    17:00 +7°C° 0 mm 5 mps 737 mmHg 51%
    18:00 +6°C° 0 mm 4 mps 738 mmHg 57%
    19:00 +4°C° 0 mm 3 mps 738 mmHg 62%
    20:00 +3°C° 0 mm 3 mps 739 mmHg 67%
    21:00 +3°C° 0 mm 3 mps 739 mmHg 69%
    22:00 +3°C° 0 mm 4 mps 739 mmHg 71%
    23:00 +1°C° 0 mm 4 mps 739 mmHg 73%

    11 Abril, Sábado

    Tiempo Temperatura Precipitaciones Viento Presión Humedad
    00:00 +1°C° 0 mm 4 mps 739 mmHg 74%
    01:00 0°C° 0 mm 4 mps 739 mmHg 75%
    02:00 0°C° 0 mm 3 mps 739 mmHg 76%
    03:00 0°C° 0 mm 3 mps 739 mmHg 76%
    04:00 -1°C° 0 mm 3 mps 740 mmHg 77%
    05:00 -1°C° 0 mm 3 mps 740 mmHg 78%
    06:00 0°C° 0 mm 3 mps 740 mmHg 71%
    07:00 0°C° 0 mm 4 mps 740 mmHg 64%
    08:00 +1°C° 0 mm 5 mps 740 mmHg 57%
    09:00 +2°C° 0.1 mm 5 mps 740 mmHg 58%
    10:00 +2°C° 0.1 mm 5 mps 741 mmHg 59%
    11:00 +2°C° 0.1 mm 6 mps 741 mmHg 59%
    12:00 +3°C° 0.1 mm 6 mps 741 mmHg 53%
    13:00 +3°C° 0.1 mm 7 mps 741 mmHg 47%
    14:00 +3°C° 0.1 mm 7 mps 741 mmHg 41%
    15:00 +3°C° 0.1 mm 7 mps 742 mmHg 45%
    16:00 +2°C° 0.1 mm 7 mps 742 mmHg 48%
    17:00 +1°C° 0.1 mm 6 mps 742 mmHg 52%
    18:00 +1°C° 0 mm 6 mps 743 mmHg 54%
    19:00 0°C° 0 mm 5 mps 743 mmHg 55%
    20:00 -1°C° 0 mm 4 mps 744 mmHg 57%
    21:00 -2°C° 0 mm 4 mps 744 mmHg 58%
    22:00 -2°C° 0 mm 4 mps 745 mmHg 60%
    23:00 -2°C° 0 mm 3 mps 745 mmHg 62%

    12 Abril, Domingo

    Tiempo Temperatura Precipitaciones Viento Presión Humedad
    00:00 -2°C° 0 mm 3 mps 745 mmHg 63%
    01:00 -2°C° 0 mm 3 mps 745 mmHg 63%
    02:00 -2°C° 0 mm 3 mps 745 mmHg 64%
    03:00 -2°C° 0 mm 3 mps 745 mmHg 65%
    04:00 -2°C° 0 mm 3 mps 745 mmHg 65%
    05:00 -2°C° 0 mm 3 mps 745 mmHg 66%
    06:00 -2°C° 0.1 mm 3 mps 745 mmHg 67%
    07:00 -2°C° 0.1 mm 4 mps 745 mmHg 68%
    08:00 -1°C° 0.1 mm 4 mps 745 mmHg 69%
    09:00 0°C° 0 mm 4 mps 745 mmHg 65%
    10:00 +1°C° 0 mm 4 mps 744 mmHg 60%
    11:00 +4°C° 0 mm 4 mps 744 mmHg 55%
    12:00 +3°C° 0.1 mm 5 mps 744 mmHg 52%
    13:00 +4°C° 0.1 mm 6 mps 743 mmHg 49%
    14:00 +5°C° 0.1 mm 6 mps 743 mmHg 47%
    15:00 +5°C° 0 mm 5 mps 743 mmHg 49%
    16:00 +5°C° 0 mm 4 mps 743 mmHg 52%
    17:00 +5°C° 0 mm 4 mps 742 mmHg 55%
    18:00 +4°C° 0 mm 3 mps 742 mmHg 60%
    19:00 +3°C° 0 mm 3 mps 742 mmHg 65%
    20:00 +3°C° 0 mm 2 mps 742 mmHg 70%
    21:00 +2°C° 0 mm 3 mps 742 mmHg 71%
    22:00 +2°C° 0 mm 3 mps 741 mmHg 72%
    23:00 +2°C° 0 mm 3 mps 741 mmHg 73%

    13 Abril, Lunes

    Tiempo Temperatura Precipitaciones Viento Presión Humedad
    00:00 +1°C° 0 mm 4 mps 740 mmHg 70%
    01:00 +1°C° 0 mm 5 mps 739 mmHg 66%
    02:00 +1°C° 0 mm 5 mps 739 mmHg 63%
    03:00 +1°C° 0 mm 6 mps 738 mmHg 69%
    04:00 0°C° 0 mm 7 mps 737 mmHg 75%
    05:00 -1°C° 0 mm 8 mps 736 mmHg 81%
    06:00 0°C° 0.2 mm 8 mps 736 mmHg 81%
    07:00 0°C° 0.2 mm 8 mps 735 mmHg 82%
    08:00 +1°C° 0.2 mm 8 mps 734 mmHg 83%
    09:00 +2°C° 0 mm 8 mps 733 mmHg 79%
    10:00 +3°C° 0 mm 9 mps 732 mmHg 75%
    11:00 +5°C° 0 mm 9 mps 732 mmHg 71%
    12:00 +6°C° 0 mm 9 mps 731 mmHg 69%
    13:00 +8°C° 0 mm 9 mps 731 mmHg 66%
    14:00 +10°C° 0 mm 9 mps 730 mmHg 63%
    15:00 +10°C° 0.4 mm 8 mps 729 mmHg 67%
    16:00 +9°C° 0.4 mm 8 mps 729 mmHg 70%
    17:00 +9°C° 0.4 mm 8 mps 728 mmHg 74%
    18:00 +8°C° 2.3 mm 7 mps 728 mmHg 79%
    19:00 +8°C° 2.3 mm 6 mps 727 mmHg 84%
    20:00 +7°C° 2.3 mm 6 mps 727 mmHg 89%
    21:00 +7°C° 2.4 mm 5 mps 726 mmHg 91%
    22:00 +7°C° 2.4 mm 4 mps 726 mmHg 93%
    23:00 +7°C° 2.4 mm 2 mps 725 mmHg 94%
    Mostrar más